{"data":{"norad_id":67682,"epoch":"2026-09-20T21:17:56.714208Z","epoch_age_seconds":55666,"freshness":"FRESH","line1":"1 67682U 26023J   26263.88746197  .00007237  00000+0  27383-3 0  9995","line2":"2 67682  96.6162 317.0737 0021696 132.1999 228.1088 15.26964918 34598","mean_motion":15.26964918,"eccentricity":0.0021696,"inclination_deg":96.6162,"raan_deg":317.0737,"arg_perigee_deg":132.1999,"mean_anomaly_deg":228.1088,"bstar":0.00027383,"rev_number":3459,"period_min":94.304720627511,"perigee_km":470.00146442413,"apogee_km":499.78151765244,"semimajor_km":6863.0284910383,"source":"CELESTRAK","updated_at":"2026-09-21T09:00:16.778246Z"}}